Raleigh-Durham Airport, NC

5:52 AM EST on December 14, 2017 (GMT -0500)
Raleigh-Durham International

Weather History for KRDU - October, 2012

Change the Weather History Date:

Wednesday, October 17, 2012

  Actual Average Record
Temperature  
Mean Temperature 59 °F 61 °F  
Max Temperature 72 °F 72 °F 88 °F (1925)
Min Temperature 46 °F 49 °F 33 °F (1970)
Degree Days  
Heating Degree Days 6 6  
Month to date heating degree days 79 65  
Since 1 July heating degree days 89 86  
Cooling Degree Days 0 1  
Month to date cooling degree days 45 39  
Year to date cooling degree days 1868 1707  
Growing Degree Days 9 (Base 50)    
Moisture  
Dew Point 47 °F    
Average Humidity 67    
Maximum Humidity 93    
Minimum Humidity 40    
Precipitation  
Precipitation 0.00 in 0.10 in 2.01 in (1903)
Month to date precipitation 0.98 1.84  
Year to date precipitation 36.44 35.74  
Sea Level Pressure  
Sea Level Pressure 29.97 in    
Wind  
Wind Speed 4 mph (South)    
Max Wind Speed 12 mph    
Max Gust Speed 14 mph    
Visibility 10 miles    
Events      
T = Trace of Precipitation, MM = Missing Value Source: NWS Daily Summary

Daily Weather History Graph

Daily Weather History Graph

Search for Another Location

Airport or City:

Trip Planner

Search our weather history database for the weather conditions in past years. The results will help you decide how hot, cold, wet, or windy it might be!

Date:

Astronomy

Oct. 17, 2012 Rise Set
Actual Time 7:24 AM EDT 6:36 PM EDT
Civil Twilight 6:58 AM EDT 7:02 PM EDT
Nautical Twilight 6:28 AM EDT 7:31 PM EDT
Astronomical Twilight 5:58 AM EDT 8:01 PM EDT
Moon 9:50 AM EDT (10/17) 8:16 PM EDT (10/17)
Length of Visible Light 12h 03m
Length of Day
11h 12m
Waxing Crescent, 7% of the Moon is Illuminated
Oct 17
Waxing Crescent
Oct 21
First Quarter
Oct 29
Full
Nov 6
Last Quarter
Nov 13
New

Hourly Weather History & Observations

Time (EDT) Temp. Dew Point Humidity Pressure Visibility Wind Dir Wind Speed Gust Speed Precip Events Conditions
12:51 AM 48.9 °F 46.0 °F 90% 29.94 in 9.0 mi Calm Calm - N/A   Scattered Clouds
1:51 AM 48.9 °F 46.0 °F 90% 29.94 in 6.0 mi Calm Calm - N/A   Mostly Cloudy
2:51 AM 48.9 °F 46.0 °F 90% 29.94 in 10.0 mi Calm Calm - N/A   Mostly Cloudy
3:51 AM 48.0 °F 46.0 °F 93% 29.94 in 5.0 mi Calm Calm - N/A   Mostly Cloudy
4:51 AM 46.9 °F 44.1 °F 90% 29.95 in 9.0 mi Calm Calm - N/A   Scattered Clouds
5:51 AM 48.0 °F 45.0 °F 89% 29.96 in 7.0 mi Calm Calm - N/A   Scattered Clouds
6:51 AM 48.0 °F 45.0 °F 89% 29.98 in 10.0 mi Calm Calm - N/A   Mostly Cloudy
7:51 AM 48.0 °F 45.0 °F 89% 29.98 in 10.0 mi Calm Calm - N/A   Mostly Cloudy
8:51 AM 53.1 °F 48.0 °F 83% 30.00 in 10.0 mi Calm Calm - N/A   Mostly Cloudy
9:51 AM 57.0 °F 51.1 °F 81% 30.02 in 10.0 mi Calm Calm - N/A   Mostly Cloudy
10:51 AM 63.0 °F 48.9 °F 60% 30.01 in 10.0 mi Variable 4.6 mph - N/A   Mostly Cloudy
11:51 AM 68.0 °F 48.9 °F 50% 30.01 in 10.0 mi SSW 6.9 mph - N/A   Mostly Cloudy
12:51 PM 71.1 °F 48.0 °F 44% 30.00 in 10.0 mi SSW 8.1 mph - N/A   Mostly Cloudy
1:51 PM 71.1 °F 48.9 °F 45% 29.97 in 10.0 mi SW 5.8 mph - N/A   Mostly Cloudy
2:51 PM 72.0 °F 46.0 °F 40% 29.95 in 10.0 mi SW 4.6 mph - N/A   Mostly Cloudy
3:51 PM 70.0 °F 44.1 °F 39% 29.94 in 10.0 mi South 6.9 mph - N/A   Mostly Cloudy
4:51 PM 70.0 °F 45.0 °F 41% 29.93 in 10.0 mi South 10.4 mph - N/A   Scattered Clouds
5:51 PM 66.9 °F 46.0 °F 47% 29.94 in 10.0 mi South 5.8 mph - N/A   Partly Cloudy
6:51 PM 62.1 °F 48.0 °F 60% 29.96 in 10.0 mi South 4.6 mph - N/A   Partly Cloudy
7:51 PM 59.0 °F 48.9 °F 69% 29.97 in 10.0 mi SSE 5.8 mph - N/A   Partly Cloudy
8:51 PM 57.9 °F 48.0 °F 70% 29.96 in 10.0 mi SSE 6.9 mph - N/A   Clear
9:51 PM 55.9 °F 48.0 °F 75% 29.97 in 10.0 mi SSE 5.8 mph - N/A   Clear
10:51 PM 55.9 °F 46.9 °F 72% 29.97 in 10.0 mi South 4.6 mph - N/A   Clear
11:51 PM 54.0 °F 46.9 °F 77% 29.95 in 10.0 mi SE 5.8 mph - N/A   Clear